ANA523 RJOO-RJFT

Flight info

Callsign ANA523
Flight time N/A
Altitude 20000
Route TIGER DCT SUMAR DCT AYAME DCT SETOH DCT ONOPA DCT WASYU Y28 ONDOC Y452 OOITA Y40 KAZMA
Aircraft B738/L-SDE2E3FGHIJ5LORVWXY/LB1D1

Departure

Time 2026-05-05 13:06
Airport Osaka Itami International Airport (RJOO)

Arrival

Time N/A
Airport Kumamoto Airport (RJFT)
Time Latitude Longitude Altitude Speed Heading
2026-05-05 12:40 34.78867 135.44226 46 ft 0 kts 31°
2026-05-05 12:51 34.78866 135.44225 46 ft 2 kts 31°
2026-05-05 12:51 34.78845 135.44209 45 ft 4 kts 31°
2026-05-05 12:52 34.78822 135.44192 46 ft 4 kts 31°
2026-05-05 12:52 34.78799 135.44175 46 ft 4 kts 31°
2026-05-05 12:52 34.78780 135.44161 45 ft 4 kts 40°
2026-05-05 12:52 34.78764 135.44137 47 ft 4 kts 75°
2026-05-05 12:53 34.78764 135.44107 47 ft 4 kts 114°
2026-05-05 12:53 34.78778 135.44082 46 ft 4 kts 133°
2026-05-05 12:53 34.78793 135.44064 47 ft 4 kts 135°
2026-05-05 12:53 34.78812 135.44042 46 ft 2 kts 135°
2026-05-05 12:54 34.78813 135.44040 44 ft 0 kts 135°
2026-05-05 12:58 34.78797 135.44060 45 ft 6 kts 135°
2026-05-05 12:58 34.78767 135.44096 47 ft 6 kts 135°
2026-05-05 12:58 34.78736 135.44134 47 ft 6 kts 135°
2026-05-05 12:59 34.78706 135.44170 45 ft 6 kts 135°
2026-05-05 12:59 34.78677 135.44205 47 ft 6 kts 135°
2026-05-05 12:59 34.78647 135.44241 46 ft 6 kts 135°
2026-05-05 13:00 34.78572 135.44324 46 ft 9 kts 155°
2026-05-05 13:00 34.78504 135.44334 47 ft 11 kts 178°
2026-05-05 13:01 34.78276 135.44334 48 ft 13 kts 180°
2026-05-05 13:01 34.78186 135.44339 48 ft 12 kts 165°
2026-05-05 13:01 34.78122 135.44401 44 ft 12 kts 134°
2026-05-05 13:01 34.78062 135.44473 47 ft 12 kts 135°
2026-05-05 13:02 34.78003 135.44543 45 ft 12 kts 135°
2026-05-05 13:02 34.77947 135.44611 46 ft 11 kts 134°
2026-05-05 13:02 34.77891 135.44680 47 ft 11 kts 134°
2026-05-05 13:02 34.77838 135.44746 47 ft 11 kts 134°
2026-05-05 13:03 34.77785 135.44809 45 ft 10 kts 136°
2026-05-05 13:03 34.77733 135.44869 47 ft 10 kts 136°
2026-05-05 13:03 34.77677 135.44919 47 ft 10 kts 154°
2026-05-05 13:03 34.77613 135.44956 48 ft 10 kts 154°
2026-05-05 13:04 34.77552 135.44992 47 ft 10 kts 157°
2026-05-05 13:04 34.77489 135.45018 48 ft 9 kts 178°
2026-05-05 13:04 34.77438 135.44976 50 ft 9 kts 249°
2026-05-05 13:04 34.77452 135.44905 50 ft 9 kts 308°
2026-05-05 13:05 34.77509 135.44836 47 ft 20 kts 315°
2026-05-05 13:05 34.77791 135.44494 44 ft 97 kts 315°
2026-05-05 13:05 34.78439 135.43711 48 ft 164 kts 315°
2026-05-05 13:05 34.79337 135.42618 476 ft 191 kts 315°
2026-05-05 13:06 34.80279 135.41445 1411 ft 195 kts 311°
2026-05-05 13:06 34.80959 135.40006 2250 ft 204 kts 285°
2026-05-05 13:06 34.81122 135.38260 2675 ft 215 kts 262°
2026-05-05 13:06 34.80586 135.36484 2874 ft 233 kts 232°
2026-05-05 13:07 34.79401 135.35200 3479 ft 232 kts 207°
2026-05-05 13:07 34.77828 135.34653 3936 ft 243 kts 183°
2026-05-05 13:07 34.76053 135.34883 4055 ft 274 kts 163°
2026-05-05 13:07 34.74149 135.35635 4324 ft 297 kts 162°
2026-05-05 13:08 34.72201 135.36362 5409 ft 287 kts 163°
2026-05-05 13:08 34.70310 135.36966 6644 ft 274 kts 175°
2026-05-05 13:08 34.68468 135.36762 7795 ft 263 kts 191°
2026-05-05 13:08 34.66722 135.36068 8496 ft 268 kts 209°
2026-05-05 13:09 34.65330 135.34533 9181 ft 276 kts 232°
2026-05-05 13:09 34.64456 135.32446 9872 ft 285 kts 255°
2026-05-05 13:09 34.64540 135.30014 10485 ft 299 kts 285°
2026-05-05 13:09 34.65391 135.27604 10714 ft 323 kts 292°
2026-05-05 13:10 34.66313 135.25025 10876 ft 343 kts 288°
2026-05-05 13:10 34.67069 135.22193 11094 ft 359 kts 282°
2026-05-05 13:10 34.67692 135.19223 11602 ft 365 kts 281°
2026-05-05 13:10 34.68267 135.16208 12282 ft 367 kts 280°
2026-05-05 13:11 34.68835 135.13181 12990 ft 369 kts 280°
2026-05-05 13:11 34.69406 135.10171 13665 ft 371 kts 281°
2026-05-05 13:11 34.69993 135.07111 14307 ft 373 kts 281°
2026-05-05 13:11 34.70573 135.04022 14909 ft 375 kts 278°
2026-05-05 13:12 34.70647 135.00874 15487 ft 373 kts 259°
2026-05-05 13:12 34.70130 134.97792 16157 ft 373 kts 255°
2026-05-05 13:12 34.69530 134.94709 16753 ft 375 kts 255°
2026-05-05 13:12 34.68914 134.91618 17352 ft 378 kts 255°
2026-05-05 13:13 34.68298 134.88505 17922 ft 380 kts 255°
2026-05-05 13:13 34.67686 134.85370 18492 ft 382 kts 255°
2026-05-05 13:13 34.67080 134.82221 18986 ft 384 kts 255°
2026-05-05 13:13 34.66475 134.79052 19539 ft 384 kts 256°
2026-05-05 13:14 34.65881 134.75929 20083 ft 384 kts 256°
2026-05-05 13:14 34.65279 134.72762 20589 ft 385 kts 256°
2026-05-05 13:14 34.64675 134.69583 21080 ft 387 kts 256°
2026-05-05 13:14 34.64067 134.66392 21554 ft 388 kts 255°
2026-05-05 13:15 34.63458 134.63195 22026 ft 389 kts 256°
2026-05-05 13:15 34.62844 134.59979 22496 ft 391 kts 255°
2026-05-05 13:15 34.62227 134.56755 22935 ft 392 kts 255°
2026-05-05 13:15 34.61608 134.53521 23369 ft 394 kts 255°
2026-05-05 13:16 34.60984 134.50270 23796 ft 396 kts 255°
2026-05-05 13:16 34.60358 134.47011 24185 ft 395 kts 255°
2026-05-05 13:16 34.59742 134.43810 24674 ft 392 kts 255°
2026-05-05 13:16 34.59123 134.40602 25184 ft 389 kts 255°
2026-05-05 13:17 34.58507 134.37419 25654 ft 386 kts 255°
2026-05-05 13:17 34.57894 134.34247 26074 ft 385 kts 255°
2026-05-05 13:17 34.57282 134.31089 26463 ft 382 kts 255°
2026-05-05 13:17 34.56681 134.27991 27027 ft 374 kts 255°
2026-05-05 13:18 34.56093 134.24957 27625 ft 364 kts 255°
2026-05-05 13:18 34.55518 134.22000 28236 ft 357 kts 254°
2026-05-05 13:18 34.54959 134.19128 28856 ft 350 kts 254°
2026-05-05 13:18 34.54403 134.16279 29496 ft 343 kts 254°
2026-05-05 13:19 34.53937 134.13472 30115 ft 338 kts 258°
2026-05-05 13:19 34.53835 134.12509 30203 ft 340 kts 259°
2026-05-05 13:19 34.53386 134.07462 30204 ft 350 kts 260°
2026-05-05 13:20 34.52886 134.01511 30209 ft 359 kts 259°
2026-05-05 13:20 34.52358 133.95427 30200 ft 364 kts 259°
2026-05-05 13:21 34.51909 133.90349 30207 ft 364 kts 259°
2026-05-05 13:21 34.51364 133.84241 30194 ft 364 kts 259°
2026-05-05 13:22 34.50813 133.78143 30186 ft 363 kts 259°
2026-05-05 13:22 34.50264 133.72095 30201 ft 363 kts 259°
2026-05-05 13:23 34.49711 133.66022 30206 ft 362 kts 259°
2026-05-05 13:23 34.49155 133.59958 30200 ft 361 kts 259°
2026-05-05 13:24 34.48598 133.53910 30212 ft 361 kts 259°
2026-05-05 13:24 34.48037 133.47843 30207 ft 361 kts 259°
2026-05-05 13:25 34.47477 133.41835 30205 ft 361 kts 259°
2026-05-05 13:25 34.46425 133.35938 30203 ft 357 kts 249°
2026-05-05 13:26 34.44655 133.30317 30196 ft 358 kts 248°
2026-05-05 13:26 34.42873 133.24681 30191 ft 359 kts 248°
2026-05-05 13:27 34.41109 133.19060 30202 ft 359 kts 248°
2026-05-05 13:27 34.39315 133.13388 30195 ft 360 kts 248°
2026-05-05 13:28 34.37507 133.07724 30186 ft 360 kts 248°
2026-05-05 13:28 34.35701 133.02063 30183 ft 360 kts 248°
2026-05-05 13:29 34.33909 132.96453 30184 ft 359 kts 248°
2026-05-05 13:29 34.32109 132.90828 30184 ft 357 kts 248°
2026-05-05 13:30 34.30325 132.85229 30193 ft 356 kts 248°
2026-05-05 13:30 34.28563 132.79634 30187 ft 355 kts 248°
2026-05-05 13:31 34.26804 132.74056 30174 ft 354 kts 248°
2026-05-05 13:31 34.25058 132.68534 30192 ft 353 kts 248°
2026-05-05 13:32 34.23297 132.62978 30190 ft 354 kts 248°
2026-05-05 13:32 34.21315 132.57530 30191 ft 354 kts 241°
2026-05-05 13:33 34.18512 132.52629 30191 ft 357 kts 232°
2026-05-05 13:33 34.15013 132.48328 30189 ft 359 kts 229°
2026-05-05 13:34 34.11488 132.44092 30198 ft 359 kts 229°
2026-05-05 13:34 34.07960 132.39828 30198 ft 359 kts 229°
2026-05-05 13:35 34.04425 132.35554 30200 ft 359 kts 229°
2026-05-05 13:35 34.00893 132.31291 30197 ft 359 kts 229°
2026-05-05 13:36 33.97380 132.27053 30195 ft 359 kts 229°
2026-05-05 13:36 33.93844 132.22804 30206 ft 357 kts 229°
2026-05-05 13:37 33.89864 132.19108 30163 ft 365 kts 218°
2026-05-05 13:37 33.85294 132.16298 30182 ft 370 kts 214°
2026-05-05 13:38 33.80649 132.13613 30180 ft 371 kts 214°
2026-05-05 13:38 33.76034 132.10921 30185 ft 371 kts 214°
2026-05-05 13:39 33.71382 132.08198 30181 ft 372 kts 213°
2026-05-05 13:39 33.66726 132.05476 30182 ft 372 kts 213°
2026-05-05 13:40 33.62148 132.02813 30172 ft 351 kts 213°
2026-05-05 13:40 33.57855 132.00311 29790 ft 340 kts 214°
2026-05-05 13:41 33.55767 131.99089 29526 ft 338 kts 214°
2026-05-05 13:41 33.53627 131.97838 29252 ft 338 kts 213°
2026-05-05 13:41 33.51536 131.96618 28982 ft 339 kts 213°
2026-05-05 13:41 33.49412 131.95382 28540 ft 340 kts 213°
2026-05-05 13:42 33.47327 131.94071 28228 ft 338 kts 217°
2026-05-05 13:42 33.45401 131.92440 27616 ft 336 kts 223°
2026-05-05 13:42 33.43563 131.90696 27100 ft 335 kts 223°